Regional Weather Roundup
Issued by NWS Grand Forks, ND

Home | Current Version | Previous Version | Graphics & Text | Print | Product List | Glossary On
Versions: 1 2 3 4 5 6 7 8 9 10 11 12 13 14 15 16 17 18 19 20 21 22 23 24 25 26 27 28 29 30 31 32 33 34 35 36 37 38 39 40 41 42 43 44 45 46 47 48 49 50
000
ASUS43 KFGF 240510
RWRFGF
PRAIRIE TO PINES  WEATHER ROUNDUP
NATIONAL WEATHER SERVICE EASTERN NORTH DAKOTA/GRAND FORKS ND
1200 AM CDT SUN SEP 24 2017

 **SATELLITE DATA USED TO AUGMENT SKY COVER AT AUTOMATED STATIONS**
 *****  WEATHER ACROSS EASTERN NORTH DAKOTA  *****

CITY           SKY/WX    TMP DP  RH WIND       PRES   REMARKS
GRAND FORKS    LGT RAIN  54  53  97 N10       30.01R
GRAND FRKS AFB LGT RAIN  52  52  98 NE10      30.01F
DEVILS LAKE    RAIN      49  47  93 N8        30.06R
FARGO          RAIN      56  55  97 N8        29.98R FOG
WAHPETON ARPT  CLOUDY    55  54  94 E6        29.96S
$$

 ***** WEATHER ACROSS CENTRAL AND WESTERN NORTH DAKOTA  *****

CITY           SKY/WX    TMP DP  RH WIND       PRES   REMARKS
BISMARCK       LGT RAIN  49  48  97 N10       30.05F FOG
MINOT          LGT RAIN  48  46  93 NW8       30.09R
JAMESTOWN      LGT RAIN  51  50  96 NE8       29.99F FOG
MINOT AFB      LGT RAIN  47  45  93 N6        30.08S
GARRISON         N/A     46  46 100 N6        30.08R
WILLISTON      LGT RAIN  46  43  89 N3        30.13R
DICKINSON      LGT RAIN  45  44  97 NE8       30.08S
HETTINGER      CLOUDY    45  42  89 N10       30.06F
$$

 *****  OTHER AIRPORT OBSERVATIONS IN OUR AREA  *****

CITY           SKY/WX    TMP DP  RH WIND       PRES   REMARKS
WALHALLA       RAIN     N/A N/A N/A N8        30.06F
GRAFTON AIRPOR NOT AVBL
VALLEY CITY AR NOT AVBL
CANDO          CLOUDY    48  48 100 N10       30.07S
CAVALIER APRT  LGT RAIN  52  52 100 N8        30.04F
GWINNER        CLOUDY    54  54 100 NE9       29.92F FOG
SHEYENNE NWR     N/A     54  54 100 NE3       29.95S
ROLLA          CLOUDY    48  48 100 N9        30.08S
 ***** THE ABOVE OBSERVATIONS ARE NON NWS ARE NOT QUALITY
       CONTROLLED AND MAY MIS-REPORT RAIN FOR SNOW...
$$

  *****  WEATHER ACROSS NORTHERN MINNESOTA  *****

CITY           SKY/WX    TMP DP  RH WIND       PRES   REMARKS
FLAG ISLAND    CLOUDY    55  52  88 NE7       30.02S
WARROAD        LGT RAIN  55  52  88 N7        30.03F
ROSEAU         CLOUDY    55  50  82 NE5       30.03F
HALLOCK        LGT RAIN  54  52  94 N7        30.04F
THF RVR FALLS  LGT RAIN  55  53  93 N7        30.02R
BAUDETTE       CLOUDY    55  54  96 NE5       30.02F
WASKISH        LGT RAIN  54  54 100 E6        30.01F
CROOKSTON      RAIN      55  54  94 N3        30.02R
STEPHEN NDAWN    N/A     54  52  94 N6          N/A
GREENBUSH NDAW   N/A     54  52  94 N3          N/A
$$
  *****  WEATHER ACROSS CENTRAL AND WEST MINNESOTA  *****

CITY           SKY/WX    TMP DP  RH WIND       PRES   REMARKS
FOSSTON        CLOUDY    54  54 100 NE7       29.99R
BEMIDJI        LGT RAIN  55  54  97 E8        30.01R
PARK RAPIDS    RAIN      57  56  96 CALM      30.01R
ELBOW LAKE     HVY RAIN  59  59 100 SE3       29.97R
WADENA         HVY RAIN  55  55 100 E10       29.97F
DETROIT LAKES  RAIN      55  54  94 SE8       29.99S
MOORHEAD       LGT RAIN  55  54  94 N5        29.98S
FERGUS FALLS   RAIN      57  57 100 E12       29.96F
MORRIS MN      NOT AVBL
STAPLES        LGT RAIN  55  55 100 NE6       29.98F
$$
  *****  WEATHER ELSEWHERE ACROSS MINNESOTA  *****

CITY           SKY/WX    TMP DP  RH WIND       PRES   REMARKS
DULUTH         FAIR      64  64 100 NE7       29.98F
INTRNTL FALLS  CLOUDY    57  54  89 CALM      30.03F
ELY            CLOUDY    59  57  94 CALM      30.02S
CLOQUET        FAIR      66  61  82 N3        29.97F
WHEATON        RAIN      57  55  94 NE5       29.95F
BRAINERD       RAIN      59  59 100 N8        29.99S FOG
HIBBING        LGT RAIN  58  57  97 N5        30.00F
ALEXANDRIA     CLOUDY    59  58  96 NE12      29.94F
SAINT CLOUD    MOCLDY    65  65 100 N5        29.95S
MINNEAPOLIS    MOCLDY    79  66  64 S6        29.94R
$$

  *****  WEATHER ACROSS SOUTH DAKOTA  *****

CITY           SKY/WX    TMP DP  RH WIND       PRES   REMARKS
SIOUX FALLS    CLOUDY    60  58  92 NE10      29.92F
BROOKINGS      MOCLDY    58  56  93 E12       29.93F
WATERTOWN      MOCLDY    59  59 100 E9        29.91F
HURON          RAIN      56  56 100 CALM      29.88F FOG
SISSETON         N/A     56  56 100 CALM      29.92F
ABERDEEN       LGT RAIN  54  54 100 N9        29.90F
MITCHELL       MOCLDY    60  59  96 E6        29.88F
PIERRE         LGT RAIN  51  50  96 N8        29.92F
MOBRIDGE       LGT RAIN  53  52  96 N10       29.94F FOG
RAPID CITY     NOT AVBL
$$

  *****  SOME WEATHER IN NEARBY STATES *****

CITY           SKY/WX    TMP DP  RH WIND       PRES   REMARKS
GLASGOW MT     CLOUDY    47  38  71 E3        30.12F
GREAT FALLS MT FAIR      37  30  75 S8        30.08F
CHEYENNE WY    CLOUDY    42  40  92 VRB5      29.99R
SCOTTSBLUFF NE LGT RAIN  46  42  86 CALM      30.00R
OMAHA NE       MOCLDY    79  66  64 S9        29.90S
DES MOINES IA  FAIR      77  65  66 SE8       29.95S
DAVENPORT IA   FAIR      72  64  76 SE8       30.04S
CHICAGO IL     FAIR      76  65  68 SE6       30.06S
EAU CLAIRE WI  FAIR      75  65  70 S8        29.98R
LA CROSSE WI   FAIR      74  66  76 CALM      29.99R
$$

  *****  SOME NATIONAL WEATHER *****

CITY           SKY/WX    TMP DP  RH WIND       PRES   REMARKS
LA GUARDIA NY  FAIR      74  60  61 N3        30.03S
RALEIGH NC     MOCLDY    70  63  78 NE3       30.07S
ATLANTA GA     FAIR      74  65  73 E5        30.03F
NEW ORLEANS LA MOCLDY    77  68  73 E5        29.91F
OKLAHOMA CITY  FAIR      75  65  70 SE9       29.90S
ALBUQUERQUE NM FAIR      62  53  72 SW6       29.85R
SALT LAKE CITY LGT RAIN  46  43  89 SE7       29.95F
LOS ANGELES CA FAIR      64  56  75 SW5       29.84S
BOISE ID       FAIR      49  35  58 W8        30.00F
SEATTLE WA     FAIR      58  48  69 N5        30.11R
$$

*** WEATHER ACROSS MANITOBA...SASKATCHEWAN AND ONTARIO ***
                ***ONTARIO***

CITY           SKY/WX    TMP DP  RH WIND       PRES   REMARKS
GERALDTON      CLOUDY    64  63  94 NW5       30.02R
THUNDER BAY    TSTM      66  66 100 VRB6      30.00R
SIOUX LOOKOUT  DRIZZLE   55  55 100 CALM      30.04S
TORONTO        CLEAR     73  66  78 NW2       30.10R
BIG TROUT LK   LGT RAIN  46  46 100 N5        30.11F FOG
PICKLE LAKE    NOT AVBL
DRYDEN         CLOUDY    54  54 100 NE5       30.03F
KENORA         CLOUDY    52  52 100 N5        30.03F FOG
$$
                *** MANITOBA***

CITY           SKY/WX    TMP DP  RH WIND       PRES   REMARKS
BRANDON        CLOUDY    48  45  87 N9        30.09F
DAUPHIN        CLOUDY    48  46  93 N3        30.13F
ISLAND LAKE    NOT AVBL
PILOT MOUND    NOT AVBL
THE PAS        CLOUDY    46  45  93 E6        30.18S
THOMPSON       CLOUDY    41  37  87 NE2       30.23R
WINNIPEG       CLOUDY    52  45  76 N6        30.08R
LYNN LAKE      MOCLDY    37  37 100 SE3       30.21S
CHURCHILL      CLOUDY    39  36  87 NE3       30.26F
GILLAM         CLOUDY    39  37  93 NE7       30.23S
$$
                ***SASKATCHEWAN***

CITY           SKY/WX    TMP DP  RH WIND       PRES   REMARKS
ESTEVAN        LGT RAIN  45  43  93 N6        30.10F
KINDERSLEY     CLOUDY    43  37  81 SE7       30.12R
LLOYDMINSTER   CLOUDY    39  36  87 S8        30.11S
PRINCE ALBERT  MOCLDY    41  39  93 E2        30.16S
REGINA         MOCLDY    43  37  81 SE3       30.16S
YORKTON        CLOUDY    45  43  93 W3        30.14F
N. BATTLEFORD  CLOUDY    43  39  87 SE5       30.15S
LA RONGE       LGT RAIN  45  43  93 SW3       30.15S
SASKATOON      MOCLDY    45  41  87 NE2       30.16S
SWIFT CURRENT    N/A     41  37  87 S9        30.12R
$$
NOTE: THESE ARE AUTOMATED STATIONS WITH LIMITED QUALITY CONTROL
      "FAIR" INDICATES FEW OR NO CLOUDS BELOW 12,000 FEET WITH NO
      SIGNIFICANT WEATHER AND/OR OBSTRUCTIONS TO VISIBILITY.
      SKY/WX - SKY CONDITION AND SIGNIFICANT WEATHER.
      TMP - AIR TEMPERATURE.    DP   - DEWPOINT TEMPERATURE.
      RH  - RELATIVE HUMIDITY.  PRES - PRESSURE.
      HX  - HEAT INDEX.         WCI  - WIND CHILL INDEX.
$




USA.gov is the U.S. government's official web portal to all federal, state and local government web resources and services.